This is the latest recevied weather packets stored in our database for station/object N1UNH. If no packets are shown the sender has not sent any weather packets the latest 10 day(s).
| Time | Temp. | Humidity | Pressure | Rain* | Wind** | Luminosity | Snow |
|---|---|---|---|---|---|---|---|
| 1777654171 | 14.44° C | 38% | 1014.9 hPa | 0 mm | - | 981 W/m² | - |
| 1777653868 | 14.44° C | 37% | 1015 hPa | 0 mm | - | 983 W/m² | - |
| 1777653565 | 14.44° C | 39% | 1014.9 hPa | 0 mm | - | 979 W/m² | - |
| 1777653261 | 13.89° C | 40% | 1014.8 hPa | 0 mm | - | 988 W/m² | - |
| 1777652958 | 13.89° C | 40% | 1014.9 hPa | 0 mm | - | 988 W/m² | - |
| 1777652654 | 13.89° C | 38% | 1015.1 hPa | 0 mm | - | 1009 W/m² | - |
| 1777652351 | 13.89° C | 39% | 1014.9 hPa | 0 mm | - | 980 W/m² | - |
| 1777652048 | 13.33° C | 44% | 1014.9 hPa | 0 mm | - | 976 W/m² | - |
| 1777651745 | 13.89° C | 40% | 1015.1 hPa | 0 mm | - | 974 W/m² | - |
| 1777651441 | 12.78° C | 41% | 1015.1 hPa | 0 mm | - | 988 W/m² | - |
| 1777651139 | 13.33° C | 43% | 1015.3 hPa | 0 mm | - | 966 W/m² | - |
| 1777650835 | 12.78° C | 43% | 1015.3 hPa | 0 mm | - | 994 W/m² | - |
| 1777650532 | 12.78° C | 46% | 1015.4 hPa | 0 mm | - | 975 W/m² | - |
| 1777650230 | 12.78° C | 44% | 1015.3 hPa | 0 mm | - | 260 W/m² | - |
| 1777649927 | 12.78° C | 44% | 1015.5 hPa | 0 mm | - | 319 W/m² | - |
| 1777649625 | 12.22° C | 45% | 1015.7 hPa | 0 mm | - | 1034 W/m² | - |
| 1777649320 | 11.67° C | 46% | 1015.6 hPa | 0 mm | - | 939 W/m² | - |
| 1777649018 | 11.67° C | 50% | 1015.8 hPa | 0 mm | - | 833 W/m² | - |
| 1777648715 | 11.67° C | 48% | 1015.8 hPa | 0 mm | - | 572 W/m² | - |
| 1777648411 | 11.11° C | 47% | 1015.7 hPa | 0 mm | - | 480 W/m² | - |
| 1777648107 | 11.11° C | 49% | 1015.7 hPa | 0 mm | - | 319 W/m² | - |
| 1777647804 | 11.11° C | 49% | 1015.8 hPa | 0 mm | - | 250 W/m² | - |
| 1777647500 | 11.11° C | 51% | 1015.8 hPa | 0 mm | - | 737 W/m² | - |
| 1777647197 | 10.56° C | 53% | 1015.7 hPa | 0 mm | - | 495 W/m² | - |
| 1777646894 | 10.56° C | 52% | 1015.7 hPa | 0 mm | - | 249 W/m² | - |
* Rain latest hour (hover to see other rain measurements)
** Current wind speed in m/s (hover to see current wind gust speed)